User: anonymous   Login
Location: Newark
(34.1333°N, 7.9667°W)
Time: 20:22:51
(UTC+00:00)
Language:

Cosmos 1503 - Orbit

View from above orbital plane
View from above orbital plane
View from above satellite
View from above satellite

Ground track
Ground track

The orbit data is extracted from the following two-line orbital elements,

1 14401U 83103A   24058.52076506  .00000297  00000-0  11900-3 0  9997
2 14401  74.0439 208.3982 0013259 180.0406 180.0747 14.32586842109314
Epoch (UTC): 27 February 2024 12:29:54
Eccentricity: 0.0013259
inclination: 74.0439°
perigee height: 773 km
apogee height: 792 km
right ascension of ascending node: 208.3982°
argument of perigee: 180.0406°
revolutions per day: 14.32586842
mean anomaly at epoch: 180.0747°
orbit number at epoch: 10931

The dashed part of the orbit path shows where the satellite is in the earth's shadow,  

DLR